Regional Weather Roundup
Issued by NWS Cleveland, OH

Home | Current Version | Previous Version | Graphics & Text | Print | Product List | Glossary On
Versions: 1 2 3 4 5 6 7 8 9 10 11 12 13 14 15 16 17 18 19 20 21 22 23 24 25 26 27 28 29 30 31 32 33 34 35 36 37 38 39 40 41 42 43 44 45 46 47 48 49 50
939
ASUS41 KCLE 240310
RWRCLE
OHIO REGIONAL WEATHER ROUNDUP
NATIONAL WEATHER SERVICE CLEVELAND, OH
1000 PM EST FRI FEB 23 2018

NOTE: "FAIR" INDICATES FEW OR NO CLOUDS BELOW 12,000 FEET WITH NO
SIGNIFICANT WEATHER AND/OR OBSTRUCTIONS TO VISIBILITY.

OHZ001>008-015>018-024>027-034-035-043-044-240400-
   NORTHWEST OHIO

CITY           SKY/WX    TMP DP  RH WIND       PRES   REMARKS
DEFIANCE       CLOUDY    44  40  85 W6        30.23R
FINDLAY        CLOUDY    48  42  80 W10       30.21S
TOLEDO EXPRESS CLOUDY    46  44  93 NW9       30.21R
TOLEDO EXEC    CLOUDY    47  42  83 W12       30.22R
LIMA           CLOUDY    47  44  90 NW9       30.21F
$$

OHZ009>014-019>023-028>033-038-089-240400-
   NORTHEAST OHIO

CITY           SKY/WX    TMP DP  RH WIND       PRES   REMARKS
CLE-HOPKINS    CLOUDY    50  45  83 W9        30.23S
CLE-LAKEFRONT  CLOUDY    42  40  92 SW8       30.21S
CUY CO. ARPT   CLOUDY    46  45  93 W14       30.21S
LORAIN-ELYRIA  CLOUDY    49  41  74 NW13      30.21S
ASHTABULA      CLOUDY    46  45  96 W8        30.21R
AKRON-CANTON   CLOUDY    55  49  80 NW13      30.20R
WOOSTER        MOCLDY    52  48  86 NW14      30.20S
MANSFIELD      CLOUDY    50  48  93 NW9       30.20S
YOUNGSTOWN     CLOUDY    51  48  89 NW8       30.19R
$$

OHZ042-051>053-060>062-070>072-077>081-240400-
  SOUTHWEST OHIO

CITY           SKY/WX    TMP DP  RH WIND       PRES   REMARKS
CINC-COVINGTON CLOUDY    54  53  97 CALM      30.21R
CINC-LUNKEN    MOCLDY    56  54  93 CALM      30.22R
HAMILTON       FAIR      53  52  96 CALM      30.23R
DAYTON         CLOUDY    50  48  93 N8        30.22S
WRIGHT-PAT AFB CLOUDY    54  49  86 NW8       30.21R
DAYTON GENERAL MOCLDY    55  51  86 NW5       30.20S
WILMINGTON     FAIR      55  54  96 W8        30.20S
$$

OHZ036-037-039>041-045>050-054>059-063>069-073>076-082>088-240400-
  CENTRAL AND SOUTHEAST OHIO

CITY           SKY/WX    TMP DP  RH WIND       PRES   REMARKS
COLUMBUS       CLOUDY    56  53  90 W8        30.19F
OSU AIRPORT    CLOUDY    55  53  93 NW7       30.20S
BOLTON FIELD   CLOUDY    55  53  95 CALM      30.21S
RICKENBACK AFB FAIR      55  55 100 W5        30.20S
NEWARK         FAIR      57  52  83 W9        30.19S
MARION         CLOUDY    50  46  86 NW5       30.22R
LANCASTER      MOCLDY    57  55  93 CALM      30.20F
ZANESVILLE     FAIR      59  54  83 W8        30.19S
NEW PHILLY     NOT AVBL
$$




USA.gov is the U.S. government's official web portal to all federal, state and local government web resources and services.